Ouarzazate, Morocco

1:17 AM WET on January 18, 2018 (GMT +0000)
Ouarzazate

Weather History for GMMZ - March, 2013

Change the Weather History Date:

Friday, March 29, 2013

  Actual Average Record
Temperature  
Mean Temperature 67 °F -  
Max Temperature 84 °F 77 °F - ()
Min Temperature 50 °F 50 °F - ()
Cooling Degree Days 2    
Growing Degree Days 17 (Base 50)    
Moisture  
Dew Point 22 °F    
Average Humidity 17    
Maximum Humidity 68    
Minimum Humidity 4    
Precipitation  
Precipitation 0.00 in 0.01 in - ()
Sea Level Pressure  
Sea Level Pressure 30.17 in    
Wind  
Wind Speed 4 mph ()    
Max Wind Speed 15 mph    
Max Gust Speed -    
Visibility 12.0 miles    
Events      
T = Trace of Precipitation, MM = Missing Value Source: Averaged Metar Reports

Daily Weather History Graph

Daily Weather History Graph

Search for Another Location

Airport or City:

Trip Planner

Search our weather history database for the weather conditions in past years. The results will help you decide how hot, cold, wet, or windy it might be!

Date:

Astronomy

Mar. 29, 2013 Rise Set
Actual Time 6:20 AM WET 6:44 PM WET
Civil Twilight 5:55 AM WET 7:09 PM WET
Nautical Twilight 5:27 AM WET 7:37 PM WET
Astronomical Twilight 4:58 AM WET 8:06 PM WET
Moon 9:16 PM WET (3/29) 7:30 AM WET (3/29)
Length of Visible Light 13h 13m
Length of Day
12h 24m
Waning Gibbous, 94% of the Moon is Illuminated
Mar 29
Waning Gibbous
Apr 3
Last Quarter
Apr 10
New
Apr 18
First Quarter
Apr 25
Full

Hourly Weather History & Observations

Time (WET) Temp. Dew Point Humidity Pressure Visibility Wind Dir Wind Speed Gust Speed Precip Events Conditions
12:00 AM 63 °F 8 °F 4%  in 12 mi WSW 6.9 mph - -   Scattered Clouds
12:00 AM 62.6 °F 8.6 °F 12% 30.12 in - WSW 6.9 mph - N/A   Clear
1:00 AM 62.6 °F 51.8 °F 68% 30.12 in - Calm Calm - N/A   Clear
2:00 AM 59.0 °F 19.4 °F 22% 30.12 in - Variable 1.2 mph - N/A   Clear
3:00 AM 59 °F 19 °F 11%  in 12 mi South 2.3 mph - -   Scattered Clouds
3:00 AM 59.0 °F 19.4 °F 22% 30.12 in - Variable 2.3 mph - N/A   Clear
4:00 AM 53.6 °F 21.2 °F 28% 30.12 in - Calm Calm - N/A   Clear
5:00 AM 51.8 °F 23.0 °F 33% 30.15 in - Calm Calm - N/A   Clear
6:00 AM 54 °F 22 °F 17%  in 12 mi Calm Calm - -   Scattered Clouds
6:00 AM 53.6 °F 23.0 °F 30% 30.18 in - North - - N/A   Clear
7:00 AM 51.8 °F 23.0 °F 33% 30.21 in - Variable 1.2 mph - N/A   Clear
8:00 AM 57.2 °F 24.8 °F 29% 30.21 in - Variable 2.3 mph - N/A   Clear
9:00 AM 64 °F 17 °F 8%  in 12 mi North 3.5 mph - -   Scattered Clouds
9:00 AM 64.4 °F 15.8 °F 15% 30.24 in - Variable 3.5 mph - N/A   Clear
10:00 AM 68.0 °F 15.8 °F 13% 30.24 in - Variable 1.2 mph - N/A   Clear
11:00 AM 71.6 °F 17.6 °F 13% 30.24 in - Variable 1.2 mph - N/A   Clear
12:00 PM 76 °F 20 °F 5%  in 12 mi West 3.5 mph - -   Partly Cloudy
12:00 PM 75.2 °F 19.4 °F 12% 30.21 in - Variable 3.5 mph - N/A   Clear
1:00 PM 80.6 °F 23.0 °F 12% 30.18 in - Variable 2.3 mph - N/A   Clear
2:00 PM 82.4 °F 23.0 °F 11% 30.15 in - Variable 2.3 mph - N/A   Clear
3:00 PM 84 °F 24 °F 5%  in 12 mi East 2.3 mph - -   Partly Cloudy
3:00 PM 84.2 °F 23.0 °F 11% 30.12 in - Variable 2.3 mph - N/A   Clear
4:00 PM 84.2 °F 24.8 °F 11% 30.12 in - Variable 4.6 mph - N/A   Clear
5:00 PM 84.2 °F 23.0 °F 11% 30.12 in - NW 15.0 mph - N/A   Clear
6:00 PM 81 °F 24 °F 5%  in 12 mi NW 12.7 mph - -   Partly Cloudy
6:00 PM 82.4 °F 23.0 °F 11% 30.12 in - NW 12.7 mph - N/A   Clear
7:00 PM 78.8 °F 21.2 °F 12% 30.15 in - NW 12.7 mph - N/A   Clear
8:00 PM 75.2 °F 23.0 °F 14% 30.18 in - NW 10.4 mph - N/A   Clear
9:00 PM 72 °F 24 °F 8%  in 12 mi West 9.2 mph - -   Scattered Clouds
9:00 PM 71.6 °F 23.0 °F 16% 30.21 in - West 8.1 mph - N/A   Clear
10:00 PM 71.6 °F 28.4 °F 20% 30.21 in - West 13.8 mph - N/A   Clear
11:00 PM 69.8 °F 30.2 °F 23% 30.21 in - Variable 3.5 mph - N/A   Clear